Time,TemperatureF,DewpointF,PressureIn,WindDirection,WindDirectionDegrees,WindSpeedMPH,WindSpeedGustMPH,Humidity,HourlyPrecipIn,Conditions,Clouds,dailyrainin,SoftwareType,DateUTC
2013-07-30 00:00:00,75.6,44.5,29.81,NNE,14,17.0,22.0,33,0.00,,,0.00,Wunderground v.1.15,2013-07-30 07:00:00,
2013-07-30 00:05:00,75.8,43.8,29.81,NNE,17,21.0,22.0,32,0.00,,,0.00,Wunderground v.1.15,2013-07-30 07:05:00,
2013-07-30 00:10:00,75.8,43.8,29.81,NNE,13,17.0,22.0,32,0.00,,,0.00,Wunderground v.1.15,2013-07-30 07:10:00,
2013-07-30 00:15:00,75.6,44.5,29.81,NNE,21,18.0,22.0,33,0.00,,,0.00,Wunderground v.1.15,2013-07-30 07:15:00,
2013-07-30 00:20:00,75.6,44.5,29.81,NNE,23,17.0,25.0,33,0.00,,,0.00,Wunderground v.1.15,2013-07-30 07:20:00,
2013-07-30 00:25:00,75.5,43.6,29.81,NNE,30,12.0,23.0,32,0.00,,,0.00,Wunderground v.1.15,2013-07-30 07:25:00,
2013-07-30 00:30:00,75.3,44.2,29.81,NE,47,21.0,24.0,33,0.00,,,0.00,Wunderground v.1.15,2013-07-30 07:30:00,
2013-07-30 00:35:00,75.3,44.2,29.82,NNE,30,12.0,27.0,33,0.00,,,0.00,Wunderground v.1.15,2013-07-30 07:35:00,
2013-07-30 00:40:00,74.9,44.6,29.82,NNE,19,10.0,27.0,34,0.00,,,0.00,Wunderground v.1.15,2013-07-30 07:40:00,
2013-07-30 00:45:00,74.9,44.6,29.82,NNE,23,9.0,27.0,34,0.00,,,0.00,Wunderground v.1.15,2013-07-30 07:45:00,
2013-07-30 00:50:00,74.6,44.4,29.82,NNE,17,16.0,27.0,34,0.00,,,0.00,Wunderground v.1.15,2013-07-30 07:50:00,
2013-07-30 00:55:00,74.6,45.1,29.82,NE,41,11.0,23.0,35,0.00,,,0.00,Wunderground v.1.15,2013-07-30 07:55:00,
2013-07-30 01:00:00,74.6,44.4,29.82,NNE,26,20.0,26.0,34,0.00,,,0.00,Wunderground v.1.15,2013-07-30 08:00:00,
2013-07-30 01:05:00,74.4,45.0,29.82,NE,44,14.0,24.0,35,0.00,,,0.00,Wunderground v.1.15,2013-07-30 08:05:00,
2013-07-30 01:10:00,74.4,45.0,29.82,NNE,29,15.0,27.0,35,0.00,,,0.00,Wunderground v.1.15,2013-07-30 08:10:00,
2013-07-30 01:15:00,74.2,44.8,29.82,North,5,20.0,25.0,35,0.00,,,0.00,Wunderground v.1.15,2013-07-30 08:15:00,
2013-07-30 01:20:00,74.3,44.9,29.82,North,9,13.0,28.0,35,0.00,,,0.00,Wunderground v.1.15,2013-07-30 08:20:00,
2013-07-30 01:25:00,74.3,44.9,29.82,NNE,18,21.0,27.0,35,0.00,,,0.00,Wunderground v.1.15,2013-07-30 08:25:00,
2013-07-30 01:30:00,74.4,45.0,29.82,NNE,17,20.0,27.0,35,0.00,,,0.00,Wunderground v.1.15,2013-07-30 08:30:00,
2013-07-30 01:35:00,74.2,44.0,29.83,North,360,15.0,25.0,34,0.00,,,0.00,Wunderground v.1.15,2013-07-30 08:35:00,
2013-07-30 01:40:00,74.3,44.9,29.83,NNE,24,20.0,26.0,35,0.00,,,0.00,Wunderground v.1.15,2013-07-30 08:40:00,
2013-07-30 01:45:00,74.1,44.7,29.83,NNE,12,20.0,25.0,35,0.00,,,0.00,Wunderground v.1.15,2013-07-30 08:45:00,
2013-07-30 01:50:00,74.0,45.3,29.83,NNE,12,19.0,25.0,36,0.00,,,0.00,Wunderground v.1.15,2013-07-30 08:50:00,
2013-07-30 01:55:00,73.9,45.3,29.83,NNE,12,16.0,25.0,36,0.00,,,0.00,Wunderground v.1.15,2013-07-30 08:55:00,
2013-07-30 02:00:00,74.2,44.8,29.83,North,9,11.0,30.0,35,0.00,,,0.00,Wunderground v.1.15,2013-07-30 09:00:00,
2013-07-30 02:05:00,73.9,44.5,29.83,North,5,23.0,25.0,35,0.00,,,0.00,Wunderground v.1.15,2013-07-30 09:05:00,
2013-07-30 02:10:00,73.9,45.3,29.83,NNE,18,18.0,27.0,36,0.00,,,0.00,Wunderground v.1.15,2013-07-30 09:10:00,
2013-07-30 02:15:00,73.9,44.5,29.83,North,5,22.0,28.0,35,0.00,,,0.00,Wunderground v.1.15,2013-07-30 09:15:00,
2013-07-30 02:20:00,73.7,45.1,29.83,North,360,9.0,28.0,36,0.00,,,0.00,Wunderground v.1.15,2013-07-30 09:20:00,
2013-07-30 02:25:00,73.5,44.9,29.83,North,5,10.0,26.0,36,0.00,,,0.00,Wunderground v.1.15,2013-07-30 09:25:00,
2013-07-30 02:30:00,73.5,44.9,29.83,NNE,15,18.0,30.0,36,0.00,,,0.00,Wunderground v.1.15,2013-07-30 09:30:00,
2013-07-30 02:35:00,73.8,45.2,29.83,NNE,15,20.0,28.0,36,0.00,,,0.00,Wunderground v.1.15,2013-07-30 09:35:00,
2013-07-30 02:40:00,73.3,44.7,29.84,NNE,30,17.0,28.0,36,0.00,,,0.00,Wunderground v.1.15,2013-07-30 09:40:00,
2013-07-30 02:45:00,73.1,45.3,29.84,NNE,17,18.0,27.0,37,0.00,,,0.00,Wunderground v.1.15,2013-07-30 09:45:00,
2013-07-30 02:50:00,73.1,45.3,29.84,NNE,18,14.0,27.0,37,0.00,,,0.00,Wunderground v.1.15,2013-07-30 09:50:00,
2013-07-30 02:55:00,73.1,45.3,29.84,North,10,17.0,25.0,37,0.00,,,0.00,Wunderground v.1.15,2013-07-30 09:55:00,
2013-07-30 03:00:00,73.1,44.5,29.84,NNE,20,15.0,26.0,36,0.00,,,0.00,Wunderground v.1.15,2013-07-30 10:00:00,
2013-07-30 03:05:00,72.9,44.4,29.84,North,5,8.0,27.0,36,0.00,,,0.00,Wunderground v.1.15,2013-07-30 10:05:00,
2013-07-30 03:10:00,73.1,44.5,29.84,NNE,22,21.0,27.0,36,0.00,,,0.00,Wunderground v.1.15,2013-07-30 10:10:00,
2013-07-30 03:15:00,73.1,44.5,29.84,NNE,21,19.0,24.0,36,0.00,,,0.00,Wunderground v.1.15,2013-07-30 10:15:00,
2013-07-30 03:20:00,73.0,44.5,29.84,NE,34,14.0,24.0,36,0.00,,,0.00,Wunderground v.1.15,2013-07-30 10:20:00,
2013-07-30 03:25:00,73.0,44.5,29.85,NNE,23,15.0,23.0,36,0.00,,,0.00,Wunderground v.1.15,2013-07-30 10:25:00,
2013-07-30 03:30:00,73.2,43.9,29.85,North,355,14.0,26.0,35,0.00,,,0.00,Wunderground v.1.15,2013-07-30 10:30:00,
2013-07-30 03:35:00,73.2,43.9,29.85,NNE,20,14.0,22.0,35,0.00,,,0.00,Wunderground v.1.15,2013-07-30 10:35:00,
2013-07-30 03:40:00,73.2,43.9,29.85,NNE,19,14.0,23.0,35,0.00,,,0.00,Wunderground v.1.15,2013-07-30 10:40:00,
2013-07-30 03:45:00,73.1,44.5,29.85,NNE,22,16.0,25.0,36,0.00,,,0.00,Wunderground v.1.15,2013-07-30 10:45:00,
2013-07-30 03:50:00,73.2,43.9,29.85,North,360,16.0,27.0,35,0.00,,,0.00,Wunderground v.1.15,2013-07-30 10:50:00,
2013-07-30 03:55:00,73.1,44.5,29.86,NNE,24,20.0,23.0,36,0.00,,,0.00,Wunderground v.1.15,2013-07-30 10:55:00,
2013-07-30 04:00:00,73.0,44.5,29.86,NNE,17,21.0,26.0,36,0.00,,,0.00,Wunderground v.1.15,2013-07-30 11:00:00,
2013-07-30 04:05:00,73.0,44.5,29.86,NNE,15,17.0,26.0,36,0.00,,,0.00,Wunderground v.1.15,2013-07-30 11:05:00,
2013-07-30 04:10:00,72.8,44.3,29.86,NNE,15,24.0,26.0,36,0.00,,,0.00,Wunderground v.1.15,2013-07-30 11:10:00,
2013-07-30 04:15:00,72.8,44.3,29.86,NNW,332,12.0,25.0,36,0.00,,,0.00,Wunderground v.1.15,2013-07-30 11:15:00,
2013-07-30 04:20:00,72.5,44.0,29.86,NNE,29,11.0,25.0,36,0.00,,,0.00,Wunderground v.1.15,2013-07-30 11:20:00,
2013-07-30 04:25:00,72.5,44.0,29.87,North,5,20.0,26.0,36,0.00,,,0.00,Wunderground v.1.15,2013-07-30 11:25:00,
2013-07-30 04:30:00,72.4,43.9,29.87,NNE,23,22.0,28.0,36,0.00,,,0.00,Wunderground v.1.15,2013-07-30 11:30:00,
2013-07-30 04:35:00,72.4,44.6,29.87,NNE,15,16.0,26.0,37,0.00,,,0.00,Wunderground v.1.15,2013-07-30 11:35:00,
2013-07-30 04:40:00,72.2,43.8,29.87,NNE,13,18.0,26.0,36,0.00,,,0.00,Wunderground v.1.15,2013-07-30 11:40:00,
2013-07-30 04:45:00,72.0,44.3,29.89,NE,37,10.0,23.0,37,0.00,,,0.00,Wunderground v.1.15,2013-07-30 11:45:00,
2013-07-30 04:50:00,71.6,44.6,29.89,ESE,113,2.0,23.0,38,0.00,,,0.00,Wunderground v.1.15,2013-07-30 11:50:00,
2013-07-30 04:55:00,71.1,44.2,29.89,ENE,66,0.0,9.0,38,0.00,,,0.00,Wunderground v.1.15,2013-07-30 11:55:00,
2013-07-30 05:00:00,70.8,44.6,29.89,ENE,63,2.0,9.0,39,0.00,,,0.00,Wunderground v.1.15,2013-07-30 12:00:00,
2013-07-30 05:05:00,70.6,45.1,29.89,NE,48,1.0,7.0,40,0.00,,,0.00,Wunderground v.1.15,2013-07-30 12:05:00,
2013-07-30 05:10:00,70.6,44.4,29.89,NNE,21,5.0,12.0,39,0.00,,,0.00,Wunderground v.1.15,2013-07-30 12:10:00,
2013-07-30 05:15:00,71.1,44.9,29.89,North,11,9.0,15.0,39,0.00,,,0.00,Wunderground v.1.15,2013-07-30 12:15:00,
2013-07-30 05:20:00,71.3,44.4,29.89,NNE,29,14.0,15.0,38,0.00,,,0.00,Wunderground v.1.15,2013-07-30 12:20:00,
2013-07-30 05:25:00,71.6,44.6,29.89,North,5,13.0,20.0,38,0.00,,,0.00,Wunderground v.1.15,2013-07-30 12:25:00,
2013-07-30 05:30:00,71.7,45.4,29.88,NE,39,19.0,20.0,39,0.00,,,0.00,Wunderground v.1.15,2013-07-30 12:30:00,
2013-07-30 05:35:00,71.5,45.2,29.88,North,11,13.0,23.0,39,0.00,,,0.00,Wunderground v.1.15,2013-07-30 12:35:00,
2013-07-30 05:40:00,71.5,45.2,29.88,North,9,16.0,23.0,39,0.00,,,0.00,Wunderground v.1.15,2013-07-30 12:40:00,
2013-07-30 05:45:00,71.5,44.5,29.89,NNE,13,15.0,20.0,38,0.00,,,0.00,Wunderground v.1.15,2013-07-30 12:45:00,
2013-07-30 05:50:00,71.6,44.6,29.89,NNE,28,13.0,24.0,38,0.00,,,0.00,Wunderground v.1.15,2013-07-30 12:50:00,
2013-07-30 05:55:00,71.6,44.6,29.89,NNE,25,13.0,23.0,38,0.00,,,0.00,Wunderground v.1.15,2013-07-30 12:55:00,
2013-07-30 06:00:00,71.6,45.3,29.89,NNE,26,18.0,23.0,39,0.00,,,0.00,Wunderground v.1.15,2013-07-30 13:00:00,
2013-07-30 06:05:00,71.6,45.3,29.90,NE,40,9.0,17.0,39,0.00,,,0.00,Wunderground v.1.15,2013-07-30 13:05:00,
2013-07-30 06:10:00,71.5,44.5,29.91,NNE,22,5.0,17.0,38,0.00,,,0.00,Wunderground v.1.15,2013-07-30 13:10:00,
2013-07-30 06:15:00,71.3,44.4,29.91,NE,34,6.0,11.0,38,0.00,,,0.00,Wunderground v.1.15,2013-07-30 13:15:00,
2013-07-30 06:20:00,71.1,44.2,29.91,NNE,32,11.0,16.0,38,0.00,,,0.00,Wunderground v.1.15,2013-07-30 13:20:00,
2013-07-30 06:25:00,71.2,45.0,29.91,NE,38,5.0,14.0,39,0.00,,,0.00,Wunderground v.1.15,2013-07-30 13:25:00,
2013-07-30 06:30:00,71.2,44.3,29.91,NNE,18,6.0,14.0,38,0.00,,,0.00,Wunderground v.1.15,2013-07-30 13:30:00,
2013-07-30 06:35:00,71.2,45.0,29.92,NNE,33,7.0,13.0,39,0.00,,,0.00,Wunderground v.1.15,2013-07-30 13:35:00,
2013-07-30 06:40:00,71.2,44.3,29.92,NNE,20,14.0,15.0,38,0.00,,,0.00,Wunderground v.1.15,2013-07-30 13:40:00,
2013-07-30 06:45:00,71.4,44.5,29.92,NNE,27,6.0,16.0,38,0.00,,,0.00,Wunderground v.1.15,2013-07-30 13:45:00,
2013-07-30 06:50:00,71.4,43.8,29.92,North,5,5.0,19.0,37,0.00,,,0.00,Wunderground v.1.15,2013-07-30 13:50:00,
2013-07-30 06:55:00,71.6,43.9,29.92,North,350,9.0,18.0,37,0.00,,,0.00,Wunderground v.1.15,2013-07-30 13:55:00,
2013-07-30 07:00:00,71.8,44.1,29.91,NNE,26,9.0,19.0,37,0.00,,,0.00,Wunderground v.1.15,2013-07-30 14:00:00,
2013-07-30 07:04:00,72.1,43.7,29.92,NNE,28,11.0,20.0,36,0.00,,,0.00,Wunderground v.1.15,2013-07-30 14:04:00,
2013-07-30 07:09:00,72.2,44.5,29.91,NNE,28,9.0,20.0,37,0.00,,,0.00,Wunderground v.1.15,2013-07-30 14:09:00,
2013-07-30 07:14:00,72.4,43.9,29.92,NNE,32,17.0,21.0,36,0.00,,,0.00,Wunderground v.1.15,2013-07-30 14:14:00,
2013-07-30 07:19:00,72.6,43.4,29.92,North,9,15.0,24.0,35,0.00,,,0.00,Wunderground v.1.15,2013-07-30 14:19:00,
2013-07-30 07:24:00,73.0,44.5,29.92,NNE,25,15.0,20.0,36,0.00,,,0.00,Wunderground v.1.15,2013-07-30 14:24:00,
2013-07-30 07:29:00,73.5,44.9,29.92,NNE,33,14.0,23.0,36,0.00,,,0.00,Wunderground v.1.15,2013-07-30 14:29:00,
2013-07-30 07:34:00,73.6,45.0,29.92,NNE,29,18.0,21.0,36,0.00,,,0.00,Wunderground v.1.15,2013-07-30 14:34:00,
2013-07-30 07:39:00,73.7,44.3,29.92,NNE,17,19.0,24.0,35,0.00,,,0.00,Wunderground v.1.15,2013-07-30 14:39:00,
2013-07-30 07:44:00,73.7,44.3,29.92,NNE,33,13.0,23.0,35,0.00,,,0.00,Wunderground v.1.15,2013-07-30 14:44:00,
2013-07-30 07:49:00,73.4,44.8,29.92,North,9,16.0,23.0,36,0.00,,,0.00,Wunderground v.1.15,2013-07-30 14:49:00,
2013-07-30 07:54:00,73.4,45.5,29.92,NNE,19,20.0,20.0,37,0.00,,,0.00,Wunderground v.1.15,2013-07-30 14:54:00,
2013-07-30 07:59:00,73.8,44.4,29.92,NNE,18,10.0,24.0,35,0.00,,,0.00,Wunderground v.1.15,2013-07-30 14:59:00,
2013-07-30 08:04:00,73.6,44.2,29.93,NNE,15,15.0,21.0,35,0.00,,,0.00,Wunderground v.1.15,2013-07-30 15:04:00,
2013-07-30 08:09:00,73.6,43.5,29.93,NNE,17,16.0,22.0,34,0.00,,,0.00,Wunderground v.1.15,2013-07-30 15:09:00,
2013-07-30 08:14:00,73.7,44.3,29.93,NNE,32,17.0,22.0,35,0.00,,,0.00,Wunderground v.1.15,2013-07-30 15:14:00,
2013-07-30 08:19:00,73.9,43.8,29.93,NNE,21,14.0,22.0,34,0.00,,,0.00,Wunderground v.1.15,2013-07-30 15:19:00,
2013-07-30 08:24:00,74.0,44.6,29.93,NNE,19,18.0,21.0,35,0.00,,,0.00,Wunderground v.1.15,2013-07-30 15:24:00,
2013-07-30 08:29:00,74.0,43.8,29.93,NNE,24,14.0,23.0,34,0.00,,,0.00,Wunderground v.1.15,2013-07-30 15:29:00,
2013-07-30 08:34:00,74.1,44.7,29.93,North,5,12.0,18.0,35,0.00,,,0.00,Wunderground v.1.15,2013-07-30 15:34:00,
2013-07-30 08:39:00,74.5,45.8,29.94,NNE,19,7.0,18.0,36,0.00,,,0.00,Wunderground v.1.15,2013-07-30 15:39:00,
2013-07-30 08:44:00,74.9,45.4,29.94,North,10,8.0,18.0,35,0.00,,,0.00,Wunderground v.1.15,2013-07-30 15:44:00,
2013-07-30 08:49:00,75.1,46.3,29.95,East,101,6.0,18.0,36,0.00,,,0.00,Wunderground v.1.15,2013-07-30 15:49:00,
2013-07-30 08:54:00,75.2,47.1,29.95,SE,130,1.0,8.0,37,0.00,,,0.00,Wunderground v.1.15,2013-07-30 15:54:00,
2013-07-30 08:59:00,75.4,45.1,29.95,ESE,115,0.0,8.0,34,0.00,,,0.00,Wunderground v.1.15,2013-07-30 15:59:00,
2013-07-30 09:04:00,75.8,46.9,29.95,NNE,15,4.0,8.0,36,0.00,,,0.00,Wunderground v.1.15,2013-07-30 16:04:00,
2013-07-30 09:09:00,75.8,46.2,29.95,NNE,16,4.0,8.0,35,0.00,,,0.00,Wunderground v.1.15,2013-07-30 16:09:00,
2013-07-30 09:14:00,75.8,45.4,29.94,NNE,32,4.0,11.0,34,0.00,,,0.00,Wunderground v.1.15,2013-07-30 16:14:00,
2013-07-30 09:19:00,75.9,46.3,29.94,NNE,22,4.0,11.0,35,0.00,,,0.00,Wunderground v.1.15,2013-07-30 16:19:00,
2013-07-30 09:24:00,76.1,47.2,29.95,NNE,18,7.0,9.0,36,0.00,,,0.00,Wunderground v.1.15,2013-07-30 16:24:00,
2013-07-30 09:29:00,76.3,45.1,29.95,NNE,14,6.0,9.0,33,0.00,,,0.00,Wunderground v.1.15,2013-07-30 16:29:00,
2013-07-30 09:34:00,76.7,45.4,29.95,NNE,30,9.0,11.0,33,0.00,,,0.00,Wunderground v.1.15,2013-07-30 16:34:00,
2013-07-30 09:39:00,76.9,46.4,29.94,NNE,24,8.0,12.0,34,0.00,,,0.00,Wunderground v.1.15,2013-07-30 16:39:00,
2013-07-30 09:44:00,77.0,46.5,29.94,NNE,16,8.0,14.0,34,0.00,,,0.00,Wunderground v.1.15,2013-07-30 16:44:00,
2013-07-30 09:49:00,77.3,45.1,29.94,NNE,24,11.0,14.0,32,0.00,,,0.00,Wunderground v.1.15,2013-07-30 16:49:00,
2013-07-30 09:54:00,77.6,43.7,29.95,North,9,13.0,17.0,30,0.00,,,0.00,Wunderground v.1.15,2013-07-30 16:54:00,
2013-07-30 09:59:00,77.7,43.8,29.95,NE,46,10.0,17.0,30,0.00,,,0.00,Wunderground v.1.15,2013-07-30 16:59:00,
2013-07-30 10:04:00,78.1,45.0,29.95,NE,40,4.0,10.0,31,0.00,,,0.00,Wunderground v.1.15,2013-07-30 17:04:00,
2013-07-30 10:09:00,78.4,43.5,29.95,NE,40,2.0,10.0,29,0.00,,,0.00,Wunderground v.1.15,2013-07-30 17:09:00,
2013-07-30 10:14:00,78.7,55.6,29.95,NE,42,5.0,5.0,45,0.00,,,0.00,Wunderground v.1.15,2013-07-30 17:14:00,
2013-07-30 10:19:00,77.8,55.4,29.95,East,86,4.0,7.0,46,0.00,,,0.00,Wunderground v.1.15,2013-07-30 17:19:00,
2013-07-30 10:24:00,77.2,54.2,29.95,SE,141,5.0,9.0,45,0.00,,,0.00,Wunderground v.1.15,2013-07-30 17:24:00,
2013-07-30 10:29:00,76.9,55.1,29.95,South,173,8.0,9.0,47,0.00,,,0.00,Wunderground v.1.15,2013-07-30 17:29:00,
2013-07-30 10:34:00,76.8,52.0,29.95,South,175,8.0,10.0,42,0.00,,,0.00,Wunderground v.1.15,2013-07-30 17:34:00,
2013-07-30 10:39:00,77.2,52.3,29.96,South,180,5.0,10.0,42,0.00,,,0.00,Wunderground v.1.15,2013-07-30 17:39:00,
2013-07-30 10:44:00,77.9,50.2,29.96,South,180,1.0,6.0,38,0.00,,,0.00,Wunderground v.1.15,2013-07-30 17:44:00,
2013-07-30 10:49:00,78.5,48.6,29.96,South,182,4.0,7.0,35,0.00,,,0.00,Wunderground v.1.15,2013-07-30 17:49:00,
2013-07-30 10:54:00,78.8,47.3,29.96,South,186,5.0,8.0,33,0.00,,,0.00,Wunderground v.1.15,2013-07-30 17:54:00,
2013-07-30 10:59:00,79.1,49.1,29.96,South,188,3.0,8.0,35,0.00,,,0.00,Wunderground v.1.15,2013-07-30 17:59:00,
2013-07-30 11:04:00,79.7,51.1,29.96,South,185,5.0,9.0,37,0.00,,,0.00,Wunderground v.1.15,2013-07-30 18:04:00,
2013-07-30 11:09:00,80.0,49.9,29.96,South,173,6.0,9.0,35,0.00,,,0.00,Wunderground v.1.15,2013-07-30 18:09:00,
2013-07-30 11:14:00,80.5,47.9,29.95,South,176,7.0,9.0,32,0.00,,,0.00,Wunderground v.1.15,2013-07-30 18:14:00,
2013-07-30 11:19:00,80.5,48.7,29.95,SSW,192,4.0,9.0,33,0.00,,,0.00,Wunderground v.1.15,2013-07-30 18:19:00,
2013-07-30 11:24:00,80.7,47.2,29.95,SSW,196,5.0,8.0,31,0.00,,,0.00,Wunderground v.1.15,2013-07-30 18:24:00,
2013-07-30 11:29:00,80.9,46.6,29.95,South,187,4.0,8.0,30,0.00,,,0.00,Wunderground v.1.15,2013-07-30 18:29:00,
2013-07-30 11:34:00,81.0,46.6,29.95,South,174,4.0,8.0,30,0.00,,,0.00,Wunderground v.1.15,2013-07-30 18:34:00,
2013-07-30 11:39:00,81.1,46.7,29.95,South,190,2.0,9.0,30,0.00,,,0.00,Wunderground v.1.15,2013-07-30 18:39:00,
2013-07-30 11:44:00,81.4,47.0,29.95,South,191,4.0,8.0,30,0.00,,,0.00,Wunderground v.1.15,2013-07-30 18:44:00,
2013-07-30 11:49:00,82.2,46.8,29.95,SSW,195,8.0,8.0,29,0.00,,,0.00,Wunderground v.1.15,2013-07-30 18:49:00,
2013-07-30 11:54:00,82.0,46.6,29.95,SSW,199,1.0,12.0,29,0.00,,,0.00,Wunderground v.1.15,2013-07-30 18:54:00,
2013-07-30 11:59:00,82.4,46.9,29.95,South,186,1.0,12.0,29,0.00,,,0.00,Wunderground v.1.15,2013-07-30 18:59:00,
2013-07-30 12:04:00,82.6,47.1,29.95,South,186,5.0,6.0,29,0.00,,,0.00,Wunderground v.1.15,2013-07-30 19:04:00,
2013-07-30 12:09:00,82.6,46.2,29.95,South,183,7.0,11.0,28,0.00,,,0.00,Wunderground v.1.15,2013-07-30 19:09:00,
2013-07-30 12:14:00,83.0,47.5,29.95,SSW,198,1.0,8.0,29,0.00,,,0.00,Wunderground v.1.15,2013-07-30 19:14:00,
2013-07-30 12:19:00,83.0,45.6,29.94,SSW,196,1.0,8.0,27,0.00,,,0.00,Wunderground v.1.15,2013-07-30 19:19:00,
2013-07-30 12:24:00,83.3,47.7,29.95,SSW,194,5.0,6.0,29,0.00,,,0.00,Wunderground v.1.15,2013-07-30 19:24:00,
2013-07-30 12:29:00,83.3,47.7,29.94,South,180,1.0,8.0,29,0.00,,,0.00,Wunderground v.1.15,2013-07-30 19:29:00,
2013-07-30 12:34:00,83.7,48.1,29.94,South,189,5.0,7.0,29,0.00,,,0.00,Wunderground v.1.15,2013-07-30 19:34:00,
2013-07-30 12:39:00,84.0,49.2,29.94,SSW,207,2.0,7.0,30,0.00,,,0.00,Wunderground v.1.15,2013-07-30 19:39:00,
2013-07-30 12:44:00,84.3,48.6,29.94,South,184,3.0,8.0,29,0.00,,,0.00,Wunderground v.1.15,2013-07-30 19:44:00,
2013-07-30 12:49:00,84.4,46.8,29.94,South,175,5.0,9.0,27,0.00,,,0.00,Wunderground v.1.15,2013-07-30 19:49:00,
2013-07-30 12:54:00,84.7,48.9,29.94,South,182,7.0,10.0,29,0.00,,,0.00,Wunderground v.1.15,2013-07-30 19:54:00,
2013-07-30 12:59:00,84.7,48.0,29.94,SSW,193,9.0,10.0,28,0.00,,,0.00,Wunderground v.1.15,2013-07-30 19:59:00,
2013-07-30 13:04:00,84.6,48.8,29.94,SSW,198,7.0,12.0,29,0.00,,,0.00,Wunderground v.1.15,2013-07-30 20:04:00,
2013-07-30 13:09:00,84.4,49.6,29.94,South,184,7.0,12.0,30,0.00,,,0.00,Wunderground v.1.15,2013-07-30 20:09:00,
2013-07-30 13:14:00,84.4,48.7,29.94,SSW,192,3.0,8.0,29,0.00,,,0.00,Wunderground v.1.15,2013-07-30 20:14:00,
2013-07-30 13:19:00,84.7,48.9,29.94,South,181,6.0,11.0,29,0.00,,,0.00,Wunderground v.1.15,2013-07-30 20:19:00,
2013-07-30 13:24:00,84.6,47.9,29.94,South,182,5.0,9.0,28,0.00,,,0.00,Wunderground v.1.15,2013-07-30 20:24:00,
2013-07-30 13:29:00,85.0,47.3,29.94,South,182,8.0,9.0,27,0.00,,,0.00,Wunderground v.1.15,2013-07-30 20:29:00,
2013-07-30 13:34:00,85.0,47.3,29.94,SSE,160,6.0,11.0,27,0.00,,,0.00,Wunderground v.1.15,2013-07-30 20:34:00,
2013-07-30 13:39:00,84.9,48.2,29.94,South,184,7.0,12.0,28,0.00,,,0.00,Wunderground v.1.15,2013-07-30 20:39:00,
2013-07-30 13:44:00,85.3,47.5,29.94,South,181,2.0,9.0,27,0.00,,,0.00,Wunderground v.1.15,2013-07-30 20:44:00,
2013-07-30 13:49:00,85.5,46.7,29.94,South,186,5.0,10.0,26,0.00,,,0.00,Wunderground v.1.15,2013-07-30 20:49:00,
2013-07-30 13:54:00,85.8,48.0,29.94,SSW,193,4.0,8.0,27,0.00,,,0.00,Wunderground v.1.15,2013-07-30 20:54:00,
2013-07-30 13:59:00,85.9,48.0,29.94,SSW,196,6.0,8.0,27,0.00,,,0.00,Wunderground v.1.15,2013-07-30 20:59:00,
2013-07-30 14:04:00,85.8,48.9,29.94,South,188,2.0,9.0,28,0.00,,,0.00,Wunderground v.1.15,2013-07-30 21:04:00,
2013-07-30 14:09:00,85.8,48.9,29.94,South,188,7.0,10.0,28,0.00,,,0.00,Wunderground v.1.15,2013-07-30 21:09:00,
2013-07-30 14:14:00,85.9,46.0,29.93,South,179,5.0,10.0,25,0.00,,,0.00,Wunderground v.1.15,2013-07-30 21:14:00,
2013-07-30 14:19:00,86.0,46.1,29.94,SSW,207,6.0,13.0,25,0.00,,,0.00,Wunderground v.1.15,2013-07-30 21:19:00,
2013-07-30 14:24:00,85.9,48.0,29.93,SSW,203,3.0,8.0,27,0.00,,,0.00,Wunderground v.1.15,2013-07-30 21:24:00,
2013-07-30 14:29:00,86.4,46.4,29.93,South,180,3.0,10.0,25,0.00,,,0.00,Wunderground v.1.15,2013-07-30 21:29:00,
2013-07-30 14:34:00,87.0,46.9,29.93,South,186,7.0,9.0,25,0.00,,,0.00,Wunderground v.1.15,2013-07-30 21:34:00,
2013-07-30 14:39:00,87.4,49.3,29.93,SSW,198,7.0,12.0,27,0.00,,,0.00,Wunderground v.1.15,2013-07-30 21:39:00,
2013-07-30 14:44:00,87.3,49.2,29.93,South,175,7.0,11.0,27,0.00,,,0.00,Wunderground v.1.15,2013-07-30 21:44:00,
2013-07-30 14:49:00,87.1,47.0,29.93,South,182,8.0,12.0,25,0.00,,,0.00,Wunderground v.1.15,2013-07-30 21:49:00,
2013-07-30 14:54:00,87.2,47.1,29.93,SSW,193,8.0,11.0,25,0.00,,,0.00,Wunderground v.1.15,2013-07-30 21:54:00,
2013-07-30 14:59:00,87.3,48.2,29.93,South,186,5.0,11.0,26,0.00,,,0.00,Wunderground v.1.15,2013-07-30 21:59:00,
2013-07-30 15:04:00,87.5,45.1,29.93,SSW,200,8.0,11.0,23,0.00,,,0.00,Wunderground v.1.15,2013-07-30 22:04:00,
2013-07-30 15:09:00,87.1,45.9,29.93,SSW,199,7.0,13.0,24,0.00,,,0.00,Wunderground v.1.15,2013-07-30 22:09:00,
2013-07-30 15:14:00,86.9,44.6,29.93,South,187,7.0,13.0,23,0.00,,,0.00,Wunderground v.1.15,2013-07-30 22:14:00,
2013-07-30 15:19:00,87.3,45.0,29.93,SSW,200,6.0,13.0,23,0.00,,,0.00,Wunderground v.1.15,2013-07-30 22:19:00,
2013-07-30 15:24:00,87.3,42.6,29.93,SSW,192,7.0,10.0,21,0.00,,,0.00,Wunderground v.1.15,2013-07-30 22:24:00,
2013-07-30 15:28:00,87.6,42.8,29.93,South,187,5.0,10.0,21,0.00,,,0.00,Wunderground v.1.15,2013-07-30 22:28:00,
2013-07-30 15:33:00,87.5,40.2,29.93,South,175,6.0,11.0,19,0.00,,,0.00,Wunderground v.1.15,2013-07-30 22:33:00,
2013-07-30 15:38:00,87.7,41.6,29.92,South,182,5.0,11.0,20,0.00,,,0.00,Wunderground v.1.15,2013-07-30 22:38:00,
2013-07-30 15:43:00,87.9,44.3,29.92,South,184,4.0,7.0,22,0.00,,,0.00,Wunderground v.1.15,2013-07-30 22:43:00,
2013-07-30 15:48:00,87.9,44.3,29.92,SSW,194,7.0,9.0,22,0.00,,,0.00,Wunderground v.1.15,2013-07-30 22:48:00,
2013-07-30 15:53:00,87.9,45.5,29.92,South,181,3.0,6.0,23,0.00,,,0.00,Wunderground v.1.15,2013-07-30 22:53:00,
2013-07-30 15:58:00,87.9,45.5,29.92,South,178,2.0,6.0,23,0.00,,,0.00,Wunderground v.1.15,2013-07-30 22:58:00,
2013-07-30 16:03:00,87.8,45.4,29.92,SSW,200,7.0,8.0,23,0.00,,,0.00,Wunderground v.1.15,2013-07-30 23:03:00,
2013-07-30 16:08:00,87.4,48.3,29.92,SSW,203,5.0,8.0,26,0.00,,,0.00,Wunderground v.1.15,2013-07-30 23:08:00,
2013-07-30 16:13:00,87.2,46.0,29.92,SSW,204,7.0,8.0,24,0.00,,,0.00,Wunderground v.1.15,2013-07-30 23:13:00,
2013-07-30 16:18:00,87.2,42.5,29.92,SSW,202,6.0,9.0,21,0.00,,,0.00,Wunderground v.1.15,2013-07-30 23:18:00,
2013-07-30 16:23:00,86.9,44.6,29.92,SSW,202,5.0,7.0,23,0.00,,,0.00,Wunderground v.1.15,2013-07-30 23:23:00,
2013-07-30 16:28:00,86.8,44.6,29.92,SSW,202,6.0,7.0,23,0.00,,,0.00,Wunderground v.1.15,2013-07-30 23:28:00,
2013-07-30 16:33:00,87.0,45.8,29.92,SSW,202,5.0,6.0,24,0.00,,,0.00,Wunderground v.1.15,2013-07-30 23:33:00,
2013-07-30 16:38:00,87.4,46.2,29.92,SSW,195,3.0,8.0,24,0.00,,,0.00,Wunderground v.1.15,2013-07-30 23:38:00,
2013-07-30 16:43:00,87.0,48.0,29.92,SW,223,4.0,6.0,26,0.00,,,0.00,Wunderground v.1.15,2013-07-30 23:43:00,
2013-07-30 16:48:00,86.8,49.8,29.92,SW,223,5.0,6.0,28,0.00,,,0.00,Wunderground v.1.15,2013-07-30 23:48:00,
2013-07-30 16:53:00,86.6,48.6,29.91,SW,223,4.0,5.0,27,0.00,,,0.00,Wunderground v.1.15,2013-07-30 23:53:00,
2013-07-30 16:58:00,86.6,50.6,29.91,SW,225,3.0,7.0,29,0.00,,,0.00,Wunderground v.1.15,2013-07-30 23:58:00,
2013-07-30 17:03:00,86.7,49.7,29.91,SW,225,4.0,5.0,28,0.00,,,0.00,Wunderground v.1.15,2013-07-31 00:03:00,
2013-07-30 17:08:00,86.6,51.5,29.91,SW,225,5.0,6.0,30,0.00,,,0.00,Wunderground v.1.15,2013-07-31 00:08:00,
2013-07-30 17:13:00,86.2,50.2,29.91,SW,225,4.0,6.0,29,0.00,,,0.00,Wunderground v.1.15,2013-07-31 00:13:00,
2013-07-30 17:18:00,85.8,50.8,29.91,SW,224,1.0,7.0,30,0.00,,,0.00,Wunderground v.1.15,2013-07-31 00:18:00,
2013-07-30 17:23:00,85.9,50.0,29.91,SW,224,0.0,5.0,29,0.00,,,0.00,Wunderground v.1.15,2013-07-31 00:23:00,
2013-07-30 17:28:00,85.9,51.8,29.91,SW,224,5.0,6.0,31,0.00,,,0.00,Wunderground v.1.15,2013-07-31 00:28:00,
2013-07-30 17:33:00,85.7,48.8,29.91,SW,224,3.0,6.0,28,0.00,,,0.00,Wunderground v.1.15,2013-07-31 00:33:00,
2013-07-30 17:38:00,85.7,51.6,29.91,SW,224,2.0,6.0,31,0.00,,,0.00,Wunderground v.1.15,2013-07-31 00:38:00,
2013-07-30 17:43:00,85.8,50.8,29.91,SW,224,2.0,4.0,30,0.00,,,0.00,Wunderground v.1.15,2013-07-31 00:43:00,
2013-07-30 17:48:00,85.7,48.8,29.91,SW,224,5.0,5.0,28,0.00,,,0.00,Wunderground v.1.15,2013-07-31 00:48:00,
2013-07-30 17:53:00,85.5,51.4,29.91,SW,224,5.0,5.0,31,0.00,,,0.00,Wunderground v.1.15,2013-07-31 00:53:00,
2013-07-30 17:58:00,85.2,50.3,29.91,SW,224,3.0,5.0,30,0.00,,,0.00,Wunderground v.1.15,2013-07-31 00:58:00,
2013-07-30 18:03:00,85.1,50.2,29.91,SW,224,1.0,4.0,30,0.00,,,0.00,Wunderground v.1.15,2013-07-31 01:03:00,
2013-07-30 18:08:00,85.1,50.2,29.91,SW,224,1.0,4.0,30,0.00,,,0.00,Wunderground v.1.15,2013-07-31 01:08:00,
2013-07-30 18:13:00,85.2,48.4,29.91,SW,224,1.0,4.0,28,0.00,,,0.00,Wunderground v.1.15,2013-07-31 01:13:00,
2013-07-30 18:18:00,85.1,47.4,29.91,SW,224,2.0,4.0,27,0.00,,,0.00,Wunderground v.1.15,2013-07-31 01:18:00,
2013-07-30 18:23:00,85.1,51.1,29.91,SW,224,0.0,4.0,31,0.00,,,0.00,Wunderground v.1.15,2013-07-31 01:23:00,
2013-07-30 18:28:00,85.0,49.2,29.91,SW,224,2.0,4.0,29,0.00,,,0.00,Wunderground v.1.15,2013-07-31 01:28:00,
2013-07-30 18:33:00,85.0,48.2,29.91,SW,224,3.0,4.0,28,0.00,,,0.00,Wunderground v.1.15,2013-07-31 01:33:00,
2013-07-30 18:38:00,85.0,50.1,29.91,SW,224,0.0,4.0,30,0.00,,,0.00,Wunderground v.1.15,2013-07-31 01:38:00,
2013-07-30 18:43:00,85.0,48.2,29.91,SW,224,1.0,3.0,28,0.00,,,0.00,Wunderground v.1.15,2013-07-31 01:43:00,
2013-07-30 18:48:00,85.0,47.3,29.91,SW,224,2.0,3.0,27,0.00,,,0.00,Wunderground v.1.15,2013-07-31 01:48:00,
2013-07-30 18:53:00,85.2,60.8,29.91,SW,224,2.0,3.0,44,0.00,,,0.00,Wunderground v.1.15,2013-07-31 01:53:00,
2013-07-30 18:58:00,84.6,63.3,29.91,SW,224,1.0,3.0,49,0.00,,,0.00,Wunderground v.1.15,2013-07-31 01:58:00,
2013-07-30 19:03:00,84.6,62.1,29.91,SW,224,1.0,3.0,47,0.00,,,0.00,Wunderground v.1.15,2013-07-31 02:03:00,
2013-07-30 19:08:00,84.7,61.6,29.91,SW,224,0.0,3.0,46,0.00,,,0.00,Wunderground v.1.15,2013-07-31 02:08:00,
2013-07-30 19:13:00,84.7,57.7,29.91,SW,224,2.0,2.0,40,0.00,,,0.00,Wunderground v.1.15,2013-07-31 02:13:00,
2013-07-30 19:18:00,84.2,52.0,29.91,SW,224,2.0,3.0,33,0.00,,,0.00,Wunderground v.1.15,2013-07-31 02:18:00,
2013-07-30 19:23:00,83.8,53.2,29.91,SW,224,1.0,3.0,35,0.00,,,0.00,Wunderground v.1.15,2013-07-31 02:23:00,
2013-07-30 19:28:00,83.7,55.4,29.91,SW,224,1.0,3.0,38,0.00,,,0.00,Wunderground v.1.15,2013-07-31 02:28:00,
2013-07-30 19:33:00,83.0,55.5,29.91,SW,224,3.0,4.0,39,0.00,,,0.00,Wunderground v.1.15,2013-07-31 02:33:00,
2013-07-30 19:38:00,82.5,55.0,29.91,WSW,250,4.0,4.0,39,0.00,,,0.00,Wunderground v.1.15,2013-07-31 02:38:00,
2013-07-30 19:43:00,82.1,56.1,29.91,West,267,4.0,4.0,41,0.00,,,0.00,Wunderground v.1.15,2013-07-31 02:43:00,
2013-07-30 19:48:00,81.5,49.6,29.91,West,269,4.0,5.0,33,0.00,,,0.00,Wunderground v.1.15,2013-07-31 02:48:00,
2013-07-30 19:53:00,82.1,45.8,29.91,West,271,1.0,4.0,28,0.00,,,0.00,Wunderground v.1.15,2013-07-31 02:53:00,
2013-07-30 19:58:00,82.4,54.2,29.91,West,271,3.0,4.0,38,0.00,,,0.00,Wunderground v.1.15,2013-07-31 02:58:00,
2013-07-30 20:03:00,82.2,44.9,29.91,West,271,3.0,4.0,27,0.00,,,0.00,Wunderground v.1.15,2013-07-31 03:03:00,
2013-07-30 20:08:00,82.1,47.6,29.91,West,271,3.0,4.0,30,0.00,,,0.00,Wunderground v.1.15,2013-07-31 03:08:00,
2013-07-30 20:13:00,81.6,48.0,29.92,West,273,4.0,5.0,31,0.00,,,0.00,Wunderground v.1.15,2013-07-31 03:13:00,
2013-07-30 20:18:00,81.3,47.8,29.92,WNW,284,4.0,5.0,31,0.00,,,0.00,Wunderground v.1.15,2013-07-31 03:18:00,
2013-07-30 20:23:00,81.3,47.8,29.92,WNW,287,3.0,5.0,31,0.00,,,0.00,Wunderground v.1.15,2013-07-31 03:23:00,
2013-07-30 20:28:00,80.6,50.4,29.92,WNW,287,4.0,5.0,35,0.00,,,0.00,Wunderground v.1.15,2013-07-31 03:28:00,
2013-07-30 20:33:00,78.2,53.2,29.92,WNW,287,4.0,4.0,42,0.00,,,0.00,Wunderground v.1.15,2013-07-31 03:33:00,
2013-07-30 20:38:00,77.1,48.8,29.92,WNW,289,4.0,5.0,37,0.00,,,0.00,Wunderground v.1.15,2013-07-31 03:38:00,
2013-07-30 20:43:00,76.4,51.0,29.92,WNW,301,5.0,6.0,41,0.00,,,0.00,Wunderground v.1.15,2013-07-31 03:43:00,
2013-07-30 20:48:00,75.3,50.6,29.92,NW,313,4.0,6.0,42,0.00,,,0.00,Wunderground v.1.15,2013-07-31 03:48:00,
2013-07-30 20:53:00,74.6,49.3,29.92,NW,325,4.0,6.0,41,0.00,,,0.00,Wunderground v.1.15,2013-07-31 03:53:00,
2013-07-30 20:58:00,75.1,48.4,29.92,NNW,334,5.0,6.0,39,0.00,,,0.00,Wunderground v.1.15,2013-07-31 03:58:00,
2013-07-30 21:01:00,75.2,49.9,29.92,NNW,337,4.0,6.0,41,0.00,,,0.00,Wunderground v.1.15,2013-07-31 04:01:00,
2013-07-30 21:06:00,73.8,50.5,29.92,NNW,338,4.0,6.0,44,0.00,,,0.00,Wunderground v.1.15,2013-07-31 04:06:00,
2013-07-30 21:11:00,72.1,50.2,29.93,NNW,338,3.0,4.0,46,0.00,,,0.00,Wunderground v.1.15,2013-07-31 04:11:00,
2013-07-30 21:16:00,71.5,50.2,29.93,NNW,338,4.0,5.0,47,0.00,,,0.00,Wunderground v.1.15,2013-07-31 04:16:00,
2013-07-30 21:21:00,71.3,49.4,29.93,NNW,338,4.0,5.0,46,0.00,,,0.00,Wunderground v.1.15,2013-07-31 04:21:00,
2013-07-30 21:26:00,72.7,47.6,29.93,NNW,343,5.0,6.0,41,0.00,,,0.00,Wunderground v.1.15,2013-07-31 04:26:00,
2013-07-30 21:31:00,74.0,47.5,29.93,NNW,348,5.0,7.0,39,0.00,,,0.00,Wunderground v.1.15,2013-07-31 04:31:00,
2013-07-30 21:36:00,73.1,49.3,29.93,NNW,348,2.0,7.0,43,0.00,,,0.00,Wunderground v.1.15,2013-07-31 04:36:00,
2013-07-30 21:41:00,71.1,49.3,29.93,North,349,4.0,5.0,46,0.00,,,0.00,Wunderground v.1.15,2013-07-31 04:41:00,
2013-07-30 21:46:00,70.5,48.7,29.94,NNW,348,4.0,6.0,46,0.00,,,0.00,Wunderground v.1.15,2013-07-31 04:46:00,
2013-07-30 21:51:00,70.6,48.2,29.94,North,349,5.0,6.0,45,0.00,,,0.00,Wunderground v.1.15,2013-07-31 04:51:00,
2013-07-30 21:56:00,70.7,48.3,29.94,North,349,5.0,7.0,45,0.00,,,0.00,Wunderground v.1.15,2013-07-31 04:56:00,
2013-07-30 22:01:00,70.5,47.5,29.94,North,349,4.0,5.0,44,0.00,,,0.00,Wunderground v.1.15,2013-07-31 05:01:00,
2013-07-30 22:06:00,70.6,47.6,29.94,North,349,3.0,5.0,44,0.00,,,0.00,Wunderground v.1.15,2013-07-31 05:06:00,
2013-07-30 22:11:00,70.3,47.3,29.94,North,349,4.0,5.0,44,0.00,,,0.00,Wunderground v.1.15,2013-07-31 05:11:00,
2013-07-30 22:16:00,70.0,47.7,29.94,North,349,6.0,6.0,45,0.00,,,0.00,Wunderground v.1.15,2013-07-31 05:16:00,
2013-07-30 22:21:00,70.1,47.8,29.94,North,351,6.0,7.0,45,0.00,,,0.00,Wunderground v.1.15,2013-07-31 05:21:00,
2013-07-30 22:26:00,70.4,46.8,29.94,North,355,6.0,8.0,43,0.00,,,0.00,Wunderground v.1.15,2013-07-31 05:26:00,
2013-07-30 22:31:00,70.6,47.6,29.94,North,350,4.0,6.0,44,0.00,,,0.00,Wunderground v.1.15,2013-07-31 05:31:00,
2013-07-30 22:36:00,70.7,48.3,29.94,North,350,5.0,7.0,45,0.00,,,0.00,Wunderground v.1.15,2013-07-31 05:36:00,
2013-07-30 22:41:00,70.6,48.2,29.94,North,350,4.0,5.0,45,0.00,,,0.00,Wunderground v.1.15,2013-07-31 05:41:00,
2013-07-30 22:46:00,70.2,48.4,29.94,North,350,4.0,5.0,46,0.00,,,0.00,Wunderground v.1.15,2013-07-31 05:46:00,
2013-07-30 22:51:00,70.1,48.4,29.94,North,350,4.0,5.0,46,0.00,,,0.00,Wunderground v.1.15,2013-07-31 05:51:00,
2013-07-30 22:56:00,70.0,48.8,29.94,North,350,5.0,6.0,47,0.00,,,0.00,Wunderground v.1.15,2013-07-31 05:56:00,
2013-07-30 23:01:00,70.2,49.0,29.94,North,350,6.0,6.0,47,0.00,,,0.00,Wunderground v.1.15,2013-07-31 06:01:00,
2013-07-30 23:06:00,70.3,49.1,29.94,North,350,5.0,6.0,47,0.00,,,0.00,Wunderground v.1.15,2013-07-31 06:06:00,
2013-07-30 23:11:00,70.2,49.0,29.94,North,349,5.0,6.0,47,0.00,,,0.00,Wunderground v.1.15,2013-07-31 06:11:00,
2013-07-30 23:16:00,69.9,48.7,29.94,North,350,5.0,8.0,47,0.00,,,0.00,Wunderground v.1.15,2013-07-31 06:16:00,
2013-07-30 23:21:00,69.8,49.2,29.94,NNW,348,8.0,8.0,48,0.00,,,0.00,Wunderground v.1.15,2013-07-31 06:21:00,
2013-07-30 23:26:00,69.8,48.7,29.94,North,350,6.0,8.0,47,0.00,,,0.00,Wunderground v.1.15,2013-07-31 06:26:00,
2013-07-30 23:31:00,70.4,48.6,29.94,North,360,5.0,7.0,46,0.00,,,0.00,Wunderground v.1.15,2013-07-31 06:31:00,
2013-07-30 23:36:00,71.0,49.2,29.94,North,360,3.0,8.0,46,0.00,,,0.00,Wunderground v.1.15,2013-07-31 06:36:00,
2013-07-30 23:41:00,70.7,48.3,29.94,North,360,4.0,6.0,45,0.00,,,0.00,Wunderground v.1.15,2013-07-31 06:41:00,
2013-07-30 23:46:00,70.1,48.9,29.94,North,360,6.0,7.0,47,0.00,,,0.00,Wunderground v.1.15,2013-07-31 06:46:00,
2013-07-30 23:51:00,70.4,48.6,29.94,North,360,6.0,6.0,46,0.00,,,0.00,Wunderground v.1.15,2013-07-31 06:51:00,
2013-07-30 23:56:00,70.5,48.1,29.94,North,360,4.0,7.0,45,0.00,,,0.00,Wunderground v.1.15,2013-07-31 06:56:00,